sat.trackr.live / text

‹ back to catalog

STARLINK-37465

NORAD 68847 · 2026-094J

PAYLOAD ACTIVE UNKNOWN

§ Identity

Operator
Country
US
Launch date
2026-04-26
Launch site
AFWTR
Launch vehicle
Mass (kg)
RCS (m²)

Purposes: comms

External: N2YO · Heavens-Above · Gunter

§ Orbital elements

Epoch: 2026-09-20T00:39:02.068128Z

Period
93.91 min
Inclination
97.2858°
Eccentricity
0.0002236
Mean motion
15.33448212 rev/d
Perigee alt
464.0 km
Apogee alt
467.1 km
Semi-major
6,843.7 km
B*
8.0350e-4
RAAN
276.1319°
Arg perigee
88.3112°
Mean anomaly
271.8386°
Rev number
2,258

§ Raw data

STARLINK-374651 68847U 26094J   26263.02710727  .00025958  00000+0  80350-3 0  99962 68847  97.2858 276.1319 0002236  88.3112 271.8386 15.33448212 22584

JSON: /api/v1/satellites/68847 · /tle

For live sub-satellite position, see the globe view (requires WebGL).

§ Visibility from observer

Set your observer location to see the next 7 days of passes ≥ 10°. The values pass through the URL so the page stays shareable.

No JS? Fill the form by hand. The geolocation button needs JavaScript.